ONEWEB-0379 (49305 NORAD) Tracking and Keplerian Element Data

This shows tracking and keplerian element data for the satellite.

Feedback or suggestion? Click here.




ElementValue
Catalog49305
NameONEWEB-0379
Epoch Orbit355
Epoch Day339.91667824
Epoch Year2021
RAAN275.0488
Inclination87.2029
Eccentricity0.0013463
Argument of Perigee85.8511
Mean Anonmoly0.5654
Mean Motion14.88440212
Decay Rate-0.00050498
L11 49305U 21090AC 21339.91667824 -.00050498 00000+0 -54853-2 0 9998
L22 49305 87.2029 275.0488 0013463 85.8511 0.5654 14.88440212 3557

Live tracking and technical data element details for ONEWEB-0379 (NORAD 49305). ONEWEB-0379 can be tracked NOW for your location showing map with azimuth and elevation plus other details from your city location.

Track the satellite on the map from your city or location and see movement details for azimuth, elevation, latitude, longitude, range, height, and movement on the map or in text.







IsCatalogInMostPopularTable: catalog: 49305, numindb: 4
Update: records affected: 1



GetName: 49305 ONEWEB-0379

Hit Count: updated at: Mon, 06 Dec 2021 15:06:08 GMT